"Pseudo-MPEC" for C1G1LY5

Created 2026 Sep 5 10:35:05 UT using Find_Orb

Click here for an explanation of pseudo-MPECs

 
 Astrometry: 
     C1G1LY5*1C2026 09 05.30925222 11 38.494+02 56 00.89   ~958K 21.46GVNEOCPV00
     C1G1LY5 1C2026 09 05.31485022 11 35.632+02 56 27.64   ~958K 21.99GVNEOCPV00
     C1G1LY5 1C2026 09 05.32043222 11 32.809+02 56 53.92   ~958K 21.78GVNEOCPV00
     C1G1LY5 1C2026 09 05.32601622 11 29.918+02 57 20.45   ~958K 21.75GVNEOCPV00
     C1G1LY5  C2026 09 05.36467022 11 09.993+03 00 21.60   ~959Z 21.6 GWNEOCPH01
     C1G1LY5  C2026 09 05.36753422 11 08.526+03 00 35.30   ~959Z 21.4 GWNEOCPH01
     C1G1LY5  C2026 09 05.38358122 11 00.424+03 01 51.31   ~959Z 22.5 GWNEOCPH01
     C1G1LY5  C2026 09 05.38794922 10 58.219+03 02 11.94   ~959Z 21.5 GWNEOCPH01

Station data:
(H01) Magdalena Ridge Observatory, Socorro  (N33.984833 W107.189333)  US/New
   Mexico.  Observers W. H. Ryan, E. V. Ryan. Measurer W. H. Ryan. 2.4-m
   f/8.9 reflector + CCD.
(V00) Kitt Peak-Bok  (N31.963125 W111.600190)  US/Arizona. Measurers T.
   Beuden, V. F. Carvajal, D. Fay, J. B. Fazekas, D. C. Fuls, A. R. Gibbs, A.
   D. Grauer, H. Gröller, J. K. Hogan, R. A. Kowalski, S. M. Larson, G. J.
   Leonard, D. Rankin, R. L. Seaman, F. C. Shelly, K. W. Wierzchoś. 2.25-m
   reflector + 4x4K mosaic CCD.

Orbital elements:  C1G1LY5
   Perihelion 2027 Feb 16.744924 +/- 105 TT = 17:52:41.4 (JD 2461453.244924)
Epoch 2026 Sep  5.0 TT = JDT 2461288.5   Earth MOID: 0.1886   Ve: 0.0642
M 195.551843549 +/- 110             (J2000 ecliptic)             AutoNEOCP
n   0.998198622 +/- 0.244           Peri.  173.674218 +/- 60
a   0.991573104 +/- 0.162           Node   337.647871 +/- 2.7
e   0.21042981 +/- 0.173            Incl.   29.290068 +/- 16
P   0.987/360.643d         H 24.49  G  0.15   U 11.8  SR
q 0.782916554 +/- 0.187    Q 1.200229654 +/- 0.803
From 8 observations 2026 Sept. 5 (1.9 hr); mean residual 0".27
Residuals in arcseconds: 
260905 V00  .16-  .08-    260905 V00  .04+  .06+    260905 H01  .25+  .10+    
260905 V00  .05-  .14+    260905 H01  .44-  .23-    260905 H01  .43+  .10+    
260905 V00  .51+  .02-    260905 H01  .58-  .07-    

Ephemerides (geocentric):
Date (UTC) HH   RA             Dec           delta  r     elong  mag " sig PA
---- --------  ------------   ------------  ------ ------ -----  --- --------
2026 09 05 11  22 10 25.080   +03 08 08.47  .19198 1.1947 164.9 22.0 32.6 121
2026 09 05 12  22 10 04.456   +03 11 25.16  .19205 1.1946 164.8 22.0 38.5 117
2026 09 05 13  22 09 43.848   +03 14 41.64  .19213 1.1946 164.7 22.0 44.7 113
2026 09 05 14  22 09 23.255   +03 17 57.91  .19220 1.1946 164.6 22.1 51.1 109
2026 09 05 15  22 09 02.678   +03 21 13.97  .19227 1.1946 164.5 22.1 58.1 105
2026 09 05 16  22 08 42.118   +03 24 29.81  .19234 1.1945 164.3 22.1 65.7 100
2026 09 05 17  22 08 21.573   +03 27 45.44  .19242 1.1945 164.2 22.1 74.3  95
2026 09 05 18  22 08 01.045   +03 31 00.84  .19249 1.1945 164.1 22.1 84.2  89
2026 09 05 19  22 07 40.534   +03 34 16.03  .19257 1.1944 164.0 22.1 95.7  83
2026 09 05 20  22 07 20.039   +03 37 30.99  .19264 1.1944 163.9 22.1  109  78
2026 09 05 21  22 06 59.560   +03 40 45.73  .19272 1.1944 163.7 22.1  124  74
2026 09 05 22  22 06 39.099   +03 44 00.25  .19280 1.1944 163.6 22.1  140  71
2026 09 05 23  22 06 18.655   +03 47 14.54  .19288 1.1943 163.5 22.1  158  68
2026 09 06 00  22 05 58.227   +03 50 28.59  .19296 1.1943 163.4 22.1  178  66
2026 09 06 01  22 05 37.817   +03 53 42.42  .19304 1.1943 163.3 22.1  199  65
2026 09 06 02  22 05 17.425   +03 56 56.02  .19312 1.1942 163.1 22.1  221  63
2026 09 06 03  22 04 57.050   +04 00 09.38  .19320 1.1942 163.0 22.1  245  62
2026 09 06 04  22 04 36.692   +04 03 22.50  .19328 1.1942 162.9 22.1  271  61
2026 09 06 05  22 04 16.353   +04 06 35.39  .19336 1.1941 162.8 22.1  298  60
2026 09 06 06  22 03 56.031   +04 09 48.04  .19345 1.1941 162.7 22.1  326  60
2026 09 06 07  22 03 35.728   +04 13 00.44  .19353 1.1941 162.6 22.1  356  59
2026 09 06 08  22 03 15.442   +04 16 12.61  .19362 1.1941 162.4 22.1  387  59
2026 09 06 09  22 02 55.175   +04 19 24.53  .19370 1.1940 162.3 22.1  420  59
2026 09 06 10  22 02 34.927   +04 22 36.20  .19379 1.1940 162.2 22.1  453  58
2026 09 06 11  22 02 14.697   +04 25 47.63  .19388 1.1940 162.1 22.1  489  58
2026 09 06 12  22 01 54.486   +04 28 58.81  .19396 1.1939 162.0 22.1  526  58
2026 09 06 13  22 01 34.293   +04 32 09.74  .19405 1.1939 161.8 22.2  564  58
2026 09 06 14  22 01 14.120   +04 35 20.42  .19414 1.1939 161.7 22.2  603  57
2026 09 06 15  22 00 53.965   +04 38 30.84  .19423 1.1938 161.6 22.2  644  57
2026 09 06 16  22 00 33.830   +04 41 41.01  .19432 1.1938 161.5 22.2  687  57
2026 09 06 17  22 00 13.714   +04 44 50.92  .19441 1.1938 161.4 22.2  730  57
2026 09 06 18  21 59 53.617   +04 48 00.58  .19451 1.1937 161.2 22.2  776  57
2026 09 06 19  21 59 33.541   +04 51 09.97  .19460 1.1937 161.1 22.2  822  57
2026 09 06 20  21 59 13.483   +04 54 19.10  .19469 1.1937 161.0 22.2  870  57
2026 09 06 21  21 58 53.446   +04 57 27.98  .19479 1.1937 160.9 22.2  920  57
2026 09 06 22  21 58 33.428   +05 00 36.58  .19488 1.1936 160.8 22.2  971  57
2026 09 06 23  21 58 13.431   +05 03 44.93  .19498 1.1936 160.6 22.2 1023  57
2026 09 07 00  21 57 53.454   +05 06 53.00  .19507 1.1936 160.5 22.2 1077  56
2026 09 07 01  21 57 33.497   +05 10 00.81  .19517 1.1935 160.4 22.2 1132  56
2026 09 07 02  21 57 13.560   +05 13 08.35  .19527 1.1935 160.3 22.2 1189  56
2026 09 07 03  21 56 53.644   +05 16 15.62  .19537 1.1935 160.2 22.2 1247  56
2026 09 07 04  21 56 33.748   +05 19 22.61  .19547 1.1934 160.0 22.2 1307  56
2026 09 07 05  21 56 13.874   +05 22 29.34  .19557 1.1934 159.9 22.2 1368  56
2026 09 07 06  21 55 54.020   +05 25 35.78  .19567 1.1934 159.8 22.2 1431  56
2026 09 07 07  21 55 34.187   +05 28 41.95  .19577 1.1933 159.7 22.2 1495  56
2026 09 07 08  21 55 14.375   +05 31 47.85  .19587 1.1933 159.6 22.2 1560  56
2026 09 07 09  21 54 54.584   +05 34 53.46  .19597 1.1933 159.5 22.2 1627  56
2026 09 07 10  21 54 34.815   +05 37 58.80  .19608 1.1932 159.3 22.2 1696  56